GW2556 Weather Reports


Display with metric or nautical units.
time (UTC)temp
F
wind
direction
speed
MPH
gust
MPH
rain 1hr
in
rain 24hr
in
rain mn
in
humidity
%
barometer
mb
20260906221300 89 278 0.0 1.0 0.00 0.00 0.00 33 1014.8
20260906220756 90 303 0.0 1.0 0.00 0.00 0.00 32 1014.3
20260906220251 90 319 1.0 2.0 0.00 0.00 0.00 32 1014.5
20260906215750 89 324 3.0 5.0 0.00 0.00 0.00 31 1014.6
20260906215251 89 296 0.0 1.0 0.00 0.00 0.00 32 1014.8
20260906214748 90 317 0.0 1.0 0.00 0.00 0.00 31 1014.5
20260906214239 91 332 1.0 2.0 0.00 0.00 0.00 30 1015.0
20260906213738 91 319 2.0 2.0 0.00 0.00 0.00 31 1014.8
20260906213237 91 309 0.0 1.0 0.00 0.00 0.00 31 1014.9
20260906212734 92 307 2.0 2.0 0.00 0.00 0.00 30 1014.8
20260906212231 92 241 1.0 2.0 0.00 0.00 0.00 29 1015.0
20260906211730 92 264 1.0 1.0 0.00 0.00 0.00 30 1015.2
20260906211225 92 307 0.0 0.0 0.00 0.00 0.00 29 1015.1
20260906210721 91 320 2.0 2.0 0.00 0.00 0.00 31 1015.2
20260906210221 92 21 2.0 2.0 0.00 0.00 0.00 30 1015.3
20260906205716 92 317 1.0 2.0 0.00 0.00 0.00 29 1015.2
20260906205213 92 300 0.0 0.0 0.00 0.00 0.00 30 1015.6
20260906204707 91 308 1.0 1.0 0.00 0.00 0.00 29 1015.6
20260906204207 91 279 2.0 2.0 0.00 0.00 0.00 30 1015.6
20260906203706 91 128 0.0 1.0 0.00 0.00 0.00 30 1015.8
20260906203201 90 303 0.0 1.0 0.00 0.00 0.00 31 1015.7
20260906202659 91 9 2.0 2.0 0.00 0.00 0.00 30 1015.7
20260906202157 91 51 2.0 3.0 0.00 0.00 0.00 30 1015.9
20260906201653 90 304 0.0 1.0 0.00 0.00 0.00 31 1016.0
20260906201152 90 335 0.0 1.0 0.00 0.00 0.00 31 1016.3
20260906200648 89 20 2.0 2.0 0.00 0.00 0.00 31 1016.2
20260906200144 89 67 1.0 3.0 0.00 0.00 0.00 31 1016.0
20260906195639 89 331 1.0 1.0 0.00 0.00 0.00 31 1016.2
20260906195136 89 144 2.0 2.0 0.00 0.00 0.00 31 1016.4
20260906194631 89 18 1.0 1.0 0.00 0.00 0.00 32 1016.0
20260906194126 88 325 3.0 3.0 0.00 0.00 0.00 31 1016.5
20260906193626 88 302 1.0 1.0 0.00 0.00 0.00 32 1016.6
20260906193122 88 282 0.0 1.0 0.00 0.00 0.00 32 1016.5
20260906192617 88 87 2.0 3.0 0.00 0.00 0.00 32 1016.8
20260906192116 88 320 1.0 2.0 0.00 0.00 0.00 31 1016.8
20260906191612 88 271 1.0 2.0 0.00 0.00 0.00 31 1017.1
20260906191110 87 1 0.0 1.0 0.00 0.00 0.00 33 1017.1
20260906190605 87 63 1.0 2.0 0.00 0.00 0.00 33 1017.3
20260906190059 88 298 1.0 1.0 0.00 0.00 0.00 33 1017.2
20260906185558 87 313 1.0 2.0 0.00 0.00 0.00 36 1017.3
20260906185057 86 313 1.0 2.0 0.00 0.00 0.00 36 1017.6
20260906184552 86 298 0.0 1.0 0.00 0.00 0.00 36 1017.6
20260906184048 86 346 3.0 3.0 0.00 0.00 0.00 36 1017.6
20260906183544 86 326 2.0 2.0 0.00 0.00 0.00 35 1017.7
20260906183040 85 325 0.0 0.0 0.00 0.00 0.00 39 1017.9
20260906182535 86 316 0.0 0.0 0.00 0.00 0.00 36 1018.2
20260906182031 86 312 0.0 1.0 0.00 0.00 0.00 36 1018.2
20260906181526 85 298 0.0 1.0 0.00 0.00 0.00 36 1018.2
20260906181021 84 325 3.0 3.0 0.00 0.00 0.00 38 1018.4
20260906180516 85 328 0.0 0.0 0.00 0.00 0.00 38 1018.6
20260906180016 84 226 1.0 1.0 0.00 0.00 0.00 40 1018.4
20260906175515 83 288 0.0 0.0 0.00 0.00 0.00 42 1018.5
20260906175009 83 346 0.0 0.0 0.00 0.00 0.00 42 1018.8
20260906174508 82 328 1.0 2.0 0.00 0.00 0.00 42 1019.0
20260906174003 80 45 3.0 3.0 0.00 0.00 0.00 43 1019.0
20260906173458 82 311 0.0 0.0 0.00 0.00 0.00 42 1019.1
20260906172957 82 332 0.0 0.0 0.00 0.00 0.00 42 1018.9
20260906172453 83 287 0.0 1.0 0.00 0.00 0.00 39 1019.3
20260906171948 82 304 0.0 0.0 0.00 0.00 0.00 39 1019.3
20260906171443 82 321 0.0 0.0 0.00 0.00 0.00 43 1019.5
20260906170939 80 303 0.0 0.0 0.00 0.00 0.00 44 1019.7
20260906170435 80 69 1.0 2.0 0.00 0.00 0.00 42 1019.6
20260906165932 80 293 1.0 1.0 0.00 0.00 0.00 43 1019.6
20260906165430 79 317 1.0 1.0 0.00 0.00 0.00 45 1019.9
20260906164926 78 303 1.0 1.0 0.00 0.00 0.00 46 1020.0
20260906164424 78 302 0.0 0.0 0.00 0.00 0.00 47 1019.9
20260906163921 77 327 0.0 0.0 0.00 0.00 0.00 48 1019.9
20260906163417 78 46 0.0 1.0 0.00 0.00 0.00 47 1019.8
20260906162914 77 302 0.0 0.0 0.00 0.00 0.00 49 1020.0
20260906162407 77 309 0.0 0.0 0.00 0.00 0.00 49 1020.3
20260906161903 77 319 0.0 0.0 0.00 0.00 0.00 49 1020.0
20260906161402 77 312 0.0 1.0 0.00 0.00 0.00 49 1020.0
20260906160901 76 316 0.0 0.0 0.00 0.00 0.00 52 1019.9
20260906160354 75 331 1.0 1.0 0.00 0.00 0.00 52 1019.9
20260906155853 76 57 1.0 1.0 0.00 0.00 0.00 51 1020.0
20260906155341 74 299 0.0 0.0 0.00 0.00 0.00 53 1019.9
20260906154838 74 333 1.0 1.0 0.00 0.00 0.00 52 1019.7
20260906154332 74 311 0.0 0.0 0.00 0.00 0.00 55 1020.2
20260906153831 74 316 0.0 0.0 0.00 0.00 0.00 53 1019.8
20260906153330 74 300 0.0 0.0 0.00 0.00 0.00 53 1020.2
20260906152825 73 296 1.0 1.0 0.00 0.00 0.00 55 1020.3
20260906152320 73 298 0.0 0.0 0.00 0.00 0.00 54 1019.9
20260906151820 72 289 0.0 1.0 0.00 0.00 0.00 56 1020.3
20260906151315 71 302 0.0 0.0 0.00 0.00 0.00 58 1020.3
20260906150811 71 61 1.0 2.0 0.00 0.00 0.00 56 1020.3
20260906150306 71 342 0.0 1.0 0.00 0.00 0.00 56 1020.3
20260906145805 72 312 0.0 0.0 0.00 0.00 0.00 54 1020.4
20260906145306 72 307 0.0 0.0 0.00 0.00 0.00 56 1020.3
20260906144759 71 303 0.0 0.0 0.00 0.00 0.00 56 1020.0
20260906144254 71 294 0.0 0.0 0.00 0.00 0.00 58 1020.2
20260906143754 70 303 0.0 0.0 0.00 0.00 0.00 59 1020.3
20260906143251 68 296 0.0 0.0 0.00 0.00 0.00 63 1020.3
20260906142750 66 302 0.0 0.0 0.00 0.00 0.00 66 1020.2
20260906142246 64 297 0.0 0.0 0.00 0.00 0.00 71 1020.0
20260906141744 64 294 0.0 0.0 0.00 0.00 0.00 73 1020.4
20260906141239 64 298 0.0 0.0 0.00 0.00 0.00 75 1020.3
20260906140738 63 298 0.0 0.0 0.00 0.00 0.00 74 1020.2
20260906140234 64 296 0.0 0.0 0.00 0.00 0.00 74 1020.5
20260906135730 64 296 0.0 0.0 0.00 0.00 0.00 73 1020.3
20260906135227 63 294 0.0 0.0 0.00 0.00 0.00 72 1020.3
20260906134722 63 294 0.0 0.0 0.00 0.00 0.00 74 1020.3
20260906134217 62 296 0.0 0.0 0.00 0.00 0.00 72 1020.3
20260906133713 61 296 0.0 0.0 0.00 0.00 0.00 74 1020.0
20260906133208 60 294 0.0 0.0 0.00 0.00 0.00 80 1020.3
20260906132703 60 295 0.0 0.0 0.00 0.00 0.00 81 1020.2
20260906132159 59 295 0.0 0.0 0.00 0.00 0.00 82 1020.3
20260906131654 59 300 0.0 0.0 0.00 0.00 0.00 83 1020.3
20260906131149 58 302 0.0 0.0 0.00 0.00 0.00 83 1020.0
20260906130644 58 301 0.0 0.0 0.00 0.00 0.00 83 1019.8
20260906130139 58 302 0.0 0.0 0.00 0.00 0.00 84 1020.0
20260906125637 58 301 0.0 0.0 0.00 0.00 0.00 84 1019.8
20260906125136 58 300 0.0 0.0 0.00 0.00 0.00 84 1019.7
20260906124632 58 302 0.0 0.0 0.00 0.00 0.00 83 1019.6
20260906124127 58 303 0.0 0.0 0.00 0.00 0.00 84 1019.6
20260906123626 58 298 0.0 0.0 0.00 0.00 0.00 83 1019.6
20260906123121 58 305 0.0 0.0 0.00 0.00 0.00 82 1019.7
20260906122620 59 305 0.0 0.0 0.00 0.00 0.00 82 1019.6
20260906122116 59 305 0.0 0.0 0.00 0.00 0.00 81 1019.6
20260906121612 59 300 0.0 0.0 0.00 0.00 0.00 80 1019.8
20260906121108 59 298 0.0 0.0 0.00 0.00 0.00 79 1019.7
20260906120604 60 302 0.0 0.0 0.00 0.00 0.00 78 1019.7
20260906120101 60 293 0.0 0.0 0.00 0.00 0.00 78 1019.7
20260906115600 60 293 0.0 0.0 0.00 0.00 0.00 77 1019.8
20260906115056 59 294 0.0 0.0 0.00 0.00 0.00 79 1019.8
20260906114550 59 294 0.0 0.0 0.00 0.00 0.00 79 1019.7
20260906114045 59 294 0.0 0.0 0.00 0.00 0.00 79 1019.6
20260906113544 59 293 0.0 0.0 0.00 0.00 0.00 79 1019.7
20260906113040 59 293 0.0 0.0 0.00 0.00 0.00 80 1019.7
20260906112534 59 302 0.0 0.0 0.00 0.00 0.00 80 1019.5
20260906112031 59 304 0.0 0.0 0.00 0.00 0.00 80 1019.6
20260906111530 59 300 0.0 0.0 0.00 0.00 0.00 80 1019.5
20260906111026 59 296 0.0 0.0 0.00 0.00 0.00 80 1019.7
20260906110526 59 303 0.0 0.0 0.00 0.00 0.00 80 1019.3
20260906110025 59 297 0.0 0.0 0.00 0.00 0.00 80 1019.3
20260906105520 60 303 0.0 0.0 0.00 0.00 0.00 79 1019.0
20260906105016 60 305 0.0 0.0 0.00 0.00 0.00 77 1019.0
20260906104514 60 300 0.0 0.0 0.00 0.00 0.00 77 1019.5
20260906104009 60 305 0.0 0.0 0.00 0.00 0.00 77 1019.1
20260906103507 61 302 0.0 0.0 0.00 0.00 0.00 77 1018.9
20260906103002 60 302 0.0 0.0 0.00 0.00 0.00 77 1019.0
20260906102457 61 298 0.0 0.0 0.00 0.00 0.00 76 1018.9
20260906101956 61 297 0.0 0.0 0.00 0.00 0.00 76 1019.1
20260906101452 61 314 0.0 0.0 0.00 0.00 0.00 76 1019.1
20260906100947 61 277 0.0 0.0 0.00 0.00 0.00 76 1018.8
20260906100442 61 305 0.0 0.0 0.00 0.00 0.00 76 1019.1
20260906095936 61 303 0.0 0.0 0.00 0.00 0.00 75 1019.1
20260906095431 62 306 0.0 0.0 0.00 0.00 0.00 74 1019.0
20260906094926 63 303 0.0 0.0 0.00 0.00 0.00 72 1019.1
20260906094420 63 295 0.0 0.0 0.00 0.00 0.00 72 1019.1
20260906093917 63 295 0.0 0.0 0.00 0.00 0.00 72 1018.9
20260906093413 63 295 0.0 0.0 0.00 0.00 0.00 72 1019.0
20260906092912 63 303 0.0 0.0 0.00 0.00 0.00 70 1018.8
20260906092407 63 297 0.0 0.0 0.00 0.00 0.00 69 1019.1
20260906091902 63 295 0.0 0.0 0.00 0.00 0.00 68 1019.0
20260906091358 64 294 0.0 0.0 0.00 0.00 0.00 67 1018.8
20260906090855 64 291 0.0 0.0 0.00 0.00 0.00 67 1018.9
20260906090354 63 294 0.0 0.0 0.00 0.00 0.00 67 1018.6
20260906085848 63 295 0.0 0.0 0.00 0.00 0.00 67 1018.9
20260906085342 64 295 0.0 0.0 0.00 0.00 0.00 66 1018.8
20260906084837 64 294 0.0 0.0 0.00 0.00 0.00 66 1018.8
20260906084336 64 300 0.0 0.0 0.00 0.00 0.00 66 1018.4
20260906083831 64 305 0.0 0.0 0.00 0.00 0.00 66 1018.8
20260906083326 64 300 0.0 0.0 0.00 0.00 0.00 66 1018.3
20260906082820 64 301 0.0 0.0 0.00 0.00 0.00 66 1018.6
20260906082315 64 302 0.0 0.0 0.00 0.00 0.00 65 1018.8
20260906081811 64 324 0.0 0.0 0.00 0.00 0.00 65 1018.6
20260906081307 64 300 0.0 0.0 0.00 0.00 0.00 65 1018.5
20260906080803 64 324 0.0 0.0 0.00 0.00 0.00 65 1018.6
20260906080300 65 302 0.0 0.0 0.00 0.00 0.00 65 1018.9
20260906075759 65 302 0.0 0.0 0.00 0.00 0.00 64 1019.0
20260906075258 65 302 0.0 0.0 0.00 0.00 0.00 64 1018.6
20260906074754 66 298 0.0 0.0 0.00 0.00 0.00 63 1018.5
20260906074253 66 296 0.0 0.0 0.00 0.00 0.00 62 1018.5
20260906073748 66 294 0.0 0.0 0.00 0.00 0.00 61 1018.5
20260906073248 67 295 0.0 0.0 0.00 0.00 0.00 60 1018.4
20260906072744 67 294 0.0 0.0 0.00 0.00 0.00 60 1018.4
20260906072239 67 301 0.0 0.0 0.00 0.00 0.00 59 1018.5
20260906071735 68 294 0.0 0.0 0.00 0.00 0.00 57 1018.5
20260906071235 68 305 0.0 0.0 0.00 0.00 0.00 57 1018.3
20260906070731 68 292 0.0 0.0 0.00 0.00 0.00 57 1018.5
20260906070227 68 294 0.0 0.0 0.00 0.00 0.00 56 1018.3
20260906065726 68 295 0.0 0.0 0.00 0.00 0.00 56 1018.3
20260906065222 69 294 0.0 0.0 0.00 0.00 0.00 56 1018.4
20260906064717 69 293 0.0 0.0 0.00 0.00 0.00 54 1018.4
20260906064213 69 297 0.0 0.0 0.00 0.00 0.00 52 1018.5
20260906063708 69 297 0.0 0.0 0.00 0.00 0.00 52 1018.6
20260906063203 70 296 0.0 0.0 0.00 0.00 0.00 51 1018.6
20260906062659 70 298 0.0 0.0 0.00 0.00 0.00 51 1018.4
20260906062158 70 303 0.0 0.0 0.00 0.00 0.00 50 1018.4
20260906061654 71 298 0.0 0.0 0.00 0.00 0.00 49 1018.5
20260906061149 71 295 0.0 0.0 0.00 0.00 0.00 48 1018.8
20260906060645 72 296 0.0 0.0 0.00 0.00 0.00 47 1019.0
20260906060142 72 301 0.0 0.0 0.00 0.00 0.00 47 1019.1
20260906055638 72 300 0.0 0.0 0.00 0.00 0.00 46 1019.2
20260906055133 72 320 1.0 2.0 0.00 0.00 0.00 45 1019.2
20260906054628 72 304 0.0 0.0 0.00 0.00 0.00 43 1018.9
20260906054123 72 303 0.0 0.0 0.00 0.00 0.00 44 1019.0
20260906053619 72 305 0.0 0.0 0.00 0.00 0.00 46 1019.0
20260906053114 73 294 0.0 0.0 0.00 0.00 0.00 44 1018.9
20260906052610 73 297 0.0 0.0 0.00 0.00 0.00 44 1019.2
20260906052106 73 300 0.0 0.0 0.00 0.00 0.00 44 1019.2
20260906051601 73 302 0.0 0.0 0.00 0.00 0.00 44 1019.1
20260906051052 73 305 0.0 0.0 0.00 0.00 0.00 41 1018.8
20260906050546 74 298 0.0 0.0 0.00 0.00 0.00 43 1018.8
20260906050042 74 298 0.0 0.0 0.00 0.00 0.00 45 1018.9
20260906045540 74 295 0.0 0.0 0.00 0.00 0.00 43 1018.9
20260906045036 74 304 0.0 0.0 0.00 0.00 0.00 40 1019.0
20260906044531 74 297 0.0 0.0 0.00 0.00 0.00 42 1019.5
20260906044027 74 297 0.0 0.0 0.00 0.00 0.00 43 1019.3
20260906043522 74 296 0.0 0.0 0.00 0.00 0.00 42 1019.3
20260906043019 73 304 0.0 0.0 0.00 0.00 0.00 42 1019.3
20260906042516 73 305 0.0 0.0 0.00 0.00 0.00 44 1019.0
20260906042011 73 294 0.0 0.0 0.00 0.00 0.00 41 1018.6
20260906041508 73 296 0.0 0.0 0.00 0.00 0.00 41 1019.0
20260906041008 73 308 0.0 0.0 0.00 0.00 0.00 40 1019.2
20260906040502 73 304 0.0 0.0 0.00 0.00 0.00 41 1018.9
20260906035957 73 303 0.0 0.0 0.00 0.00 0.00 41 1018.9
20260906035453 73 296 0.0 1.0 0.00 0.00 0.00 42 1019.0
20260906034949 72 293 0.0 0.0 0.00 0.00 0.00 42 1018.6
20260906034449 72 298 0.0 0.0 0.00 0.00 0.00 48 1018.0
20260906033944 73 297 0.0 0.0 0.00 0.00 0.00 44 1017.8
20260906033438 73 294 0.0 0.0 0.00 0.00 0.00 43 1017.7
20260906032934 74 294 0.0 0.0 0.00 0.00 0.00 39 1017.7
20260906032431 74 290 0.0 0.0 0.00 0.00 0.00 39 1017.7
20260906031925 74 297 0.0 0.0 0.00 0.00 0.00 38 1017.7
20260906031420 74 296 0.0 0.0 0.00 0.00 0.00 39 1017.6
20260906030915 74 296 0.0 0.0 0.00 0.00 0.00 40 1017.7
20260906030410 74 296 0.0 0.0 0.00 0.00 0.00 38 1017.3
20260906025905 75 293 0.0 0.0 0.00 0.00 0.00 37 1017.2
20260906025359 75 298 0.0 0.0 0.00 0.00 0.00 37 1017.3
20260906024858 75 296 0.0 0.0 0.00 0.00 0.00 37 1017.2
20260906024357 75 302 0.0 0.0 0.00 0.00 0.00 37 1016.9
20260906023852 75 297 0.0 0.0 0.00 0.00 0.00 37 1017.1
20260906023348 76 298 0.0 0.0 0.00 0.00 0.00 36 1017.1
20260906022843 76 300 0.0 0.0 0.00 0.00 0.00 35 1017.1
20260906022338 77 298 0.0 0.0 0.00 0.00 0.00 35 1017.3
20260906021834 77 299 0.0 0.0 0.00 0.00 0.00 34 1017.2
20260906021333 78 298 0.0 0.0 0.00 0.00 0.00 33 1017.2
20260906020828 78 298 0.0 0.0 0.00 0.00 0.00 32 1016.9
20260906020327 79 297 0.0 0.0 0.00 0.00 0.00 32 1017.1
20260906015822 80 297 0.0 0.0 0.00 0.00 0.00 31 1016.9
20260906015320 80 298 0.0 0.0 0.00 0.00 0.00 31 1016.9
20260906014815 80 308 0.0 1.0 0.00 0.00 0.00 29 1016.9
20260906014310 78 307 2.0 2.0 0.00 0.00 0.00 32 1016.8
20260906013806 78 303 0.0 0.0 0.00 0.00 0.00 34 1016.5
20260906013301 79 298 0.0 0.0 0.00 0.00 0.00 32 1016.3
20260906012757 79 298 0.0 0.0 0.00 0.00 0.00 32 1016.4
20260906012251 80 298 0.0 0.0 0.00 0.00 0.00 30 1016.2
20260906011747 81 298 0.0 0.0 0.00 0.00 0.00 30 1016.2
20260906011246 82 298 0.0 0.0 0.00 0.00 0.00 29 1015.9
20260906010742 82 298 0.0 0.0 0.00 0.00 0.00 28 1015.9
20260906010238 83 296 0.0 0.0 0.00 0.00 0.00 28 1016.3
20260906005732 83 299 0.0 0.0 0.00 0.00 0.00 29 1016.3
20260906005226 84 298 0.0 0.0 0.00 0.00 0.00 27 1016.2
20260906004725 85 298 0.0 0.0 0.00 0.00 0.00 27 1016.3
20260906004215 85 298 0.0 0.0 0.00 0.00 0.00 25 1016.2
20260906003710 86 298 0.0 0.0 0.00 0.00 0.00 24 1016.0
20260906003206 87 298 0.0 0.0 0.00 0.00 0.00 23 1016.4
20260906002706 87 312 0.0 0.0 0.00 0.00 0.00 23 1016.3
20260906002201 88 339 1.0 1.0 0.00 0.00 0.00 22 1016.3
20260906001656 88 321 0.0 0.0 0.00 0.00 0.00 23 1016.4
20260906001155 88 302 0.0 0.0 0.00 0.00 0.00 22 1016.4
20260906000651 88 307 0.0 0.0 0.00 0.00 0.00 22 1016.2
20260906000147 89 308 0.0 0.0 0.00 0.00 0.00 22 1016.0
20260905235645 89 20 1.0 1.0 0.00 0.00 0.00 22 1016.0
20260905235141 89 293 0.0 0.0 0.00 0.00 0.00 22 1015.8
20260905234636 89 303 0.0 0.0 0.00 0.00 0.00 22 1015.8
20260905234131 89 323 0.0 1.0 0.00 0.00 0.00 22 1015.9
20260905233626 89 292 0.0 0.0 0.00 0.00 0.00 22 1015.9
20260905233120 89 307 0.0 1.0 0.00 0.00 0.00 22 1016.2
20260905232616 89 344 0.0 1.0 0.00 0.00 0.00 23 1015.9
20260905232111 89 319 0.0 0.0 0.00 0.00 0.00 22 1015.9
20260905231606 89 303 0.0 0.0 0.00 0.00 0.00 23 1015.8
20260905231102 89 314 0.0 0.0 0.00 0.00 0.00 21 1015.9
20260905230602 89 297 0.0 0.0 0.00 0.00 0.00 22 1015.8
20260905230100 89 291 0.0 0.0 0.00 0.00 0.00 23 1016.0
20260905225555 89 298 0.0 1.0 0.00 0.00 0.00 21 1015.8
20260905225050 89 333 0.0 0.0 0.00 0.00 0.00 22 1016.0
20260905224550 89 326 1.0 1.0 0.00 0.00 0.00 22 1016.0
20260905224049 90 337 3.0 3.0 0.00 0.00 0.00 21 1015.7
20260905223547 90 325 1.0 1.0 0.00 0.00 0.00 22 1015.7
20260905223043 90 316 0.0 2.0 0.00 0.00 0.00 22 1015.8
20260905222543 90 304 2.0 3.0 0.00 0.00 0.00 21 1015.8
20260905222038 90 327 3.0 3.0 0.00 0.00 0.00 21 1016.0